Weather History for Jerez de la Frontera, Spain

Change the Weather History Date:

Friday, October 19, 2012

  Actual Average Record
Temperature  
Mean Temperature 62 °F -  
Max Temperature 69 °F 69 °F 82 °F (1997)
Min Temperature 55 °F 50 °F 41 °F (2010)
Degree Days  
Heating Degree Days 3    
Growing Degree Days 12 (Base 50)    
Moisture  
Dew Point 56 °F    
Average Humidity 85    
Maximum Humidity 100    
Minimum Humidity 60    
Precipitation  
Precipitation 0.00 in 0.12 in - ()
Sea Level Pressure  
Sea Level Pressure 29.80 in    
Wind  
Wind Speed 4 mph ()    
Max Wind Speed 13 mph    
Max Gust Speed -    
Visibility 6.3 miles    
Events Rain    
Averages and records for this station are not official NWS values.
T = Trace of Precipitation, MM = Missing Value Source: Averaged Metar Reports

Daily Weather History Graph

Daily Weather History Graph

Search for Another Location

Airport:

Trip Planner

Search our weather history database for the weather conditions in past years. The results will help you decide how hot, cold, wet, or windy it might be!

Date:

Astronomy

Oct. 19, 2012 Rise Set
Actual Time 8:35 AM CEST 7:42 PM CEST
Civil Twilight 8:09 AM CEST 8:08 PM CEST
Nautical Twilight 7:39 AM CEST 8:38 PM CEST
Astronomical Twilight 7:09 AM CEST 9:08 PM CEST
Moon 12:59 PM CEST (10/19) 11:10 PM CEST (10/19)
Length of Visible Light 11h 58m
Length of Day
11h 06m
Waxing Crescent, 21% of the Moon is Illuminated
Oct 19
Waxing Crescent
Oct 22
First Quarter
Oct 29
Full
Nov 7
Last Quarter
Nov 13
New

Hourly Weather History & Observations

Time (CEST) Temp. Dew Point Humidity Pressure Visibility Wind Dir Wind Speed Gust Speed Precip Events Conditions
2:00 AM 56 °F 56 °F 98% 29.78 in 7 mi South 3.5 mph - -   Mostly Cloudy
5:00 AM 57.2 °F 55.4 °F 94% 29.74 in 6.2 mi Calm Calm - N/A   Scattered Clouds
5:30 AM 55.4 °F 55.4 °F 100% 29.74 in 6.2 mi Variable 1.2 mph - N/A   Scattered Clouds
6:00 AM 55.4 °F 55.4 °F 100% 29.77 in 6.2 mi Variable 1.2 mph - N/A   Scattered Clouds
6:30 AM 57.2 °F 55.4 °F 94% 29.77 in 6.2 mi SSE 5.8 mph - N/A   Mostly Cloudy
6:32 AM 57.2 °F 57.2 °F 100% 29.77 in 4.3 mi SSE 6.9 mph - N/A Rain Rain
7:00 AM 57.2 °F 57.2 °F 100% 29.77 in 3.1 mi South 4.6 mph - N/A Rain Rain
7:30 AM 57.2 °F 57.2 °F 100% 29.77 in 5.0 mi Variable 2.3 mph - N/A Rain Light Rain
8:00 AM 56 °F 56 °F 100% 29.78 in 6 mi ESE 2.3 mph - - Rain Light Rain
8:00 AM 57.2 °F 55.4 °F 94% 29.77 in 6.2 mi Variable 2.3 mph - N/A   Mostly Cloudy
8:30 AM 55.4 °F 55.4 °F 100% 29.77 in 6.2 mi East 3.5 mph - N/A   Mostly Cloudy
9:00 AM 55.4 °F 55.4 °F 100% 29.77 in 6.2 mi Variable 1.2 mph - N/A   Scattered Clouds
9:30 AM 57.2 °F 57.2 °F 100% 29.80 in 6.2 mi Variable 1.2 mph - N/A   Scattered Clouds
10:00 AM 57.2 °F 57.2 °F 100% 29.80 in 6.2 mi Variable 2.3 mph - N/A   Scattered Clouds
10:30 AM 59.0 °F 57.2 °F 94% 29.80 in 6.2 mi Variable 1.2 mph - N/A   Scattered Clouds
11:00 AM 60.8 °F 59.0 °F 94% 29.80 in 6.2 mi Variable 1.2 mph - N/A   Scattered Clouds
11:30 AM 62.6 °F 60.8 °F 94% 29.83 in 6.2 mi South 4.6 mph - N/A   Scattered Clouds
12:00 PM 62.6 °F 57.2 °F 82% 29.83 in 6.2 mi South 5.8 mph - N/A   Scattered Clouds
12:30 PM 64.4 °F 55.4 °F 73% 29.83 in 6.2 mi South 6.9 mph - N/A   Scattered Clouds
1:00 PM 66.2 °F 57.2 °F 73% 29.83 in 6.2 mi South 8.1 mph - N/A   Scattered Clouds
1:30 PM 66.2 °F 59.0 °F 78% 29.83 in 6.2 mi South 6.9 mph - N/A   Scattered Clouds
2:00 PM 69 °F 59 °F 63% 29.83 in 12 mi SSE 9.2 mph - -   Mostly Cloudy
2:00 PM 68.0 °F 55.4 °F 64% 29.80 in 6.2 mi South 8.1 mph - N/A   Scattered Clouds
2:30 PM 66.2 °F 55.4 °F 68% 29.83 in 6.2 mi South 11.5 mph - N/A   Scattered Clouds
3:00 PM 66.2 °F 55.4 °F 68% 29.80 in 6.2 mi South 12.7 mph - N/A   Mostly Cloudy
3:30 PM 66.2 °F 55.4 °F 68% 29.80 in 6.2 mi SSW 10.4 mph - N/A   Mostly Cloudy
4:00 PM 66.2 °F 57.2 °F 73% 29.80 in 6.2 mi SSW 10.4 mph - N/A   Mostly Cloudy
4:30 PM 66.2 °F 51.8 °F 60% 29.80 in 6.2 mi South 10.4 mph - N/A   Mostly Cloudy
5:00 PM 66.2 °F 53.6 °F 64% 29.80 in 6.2 mi SSW 12.7 mph - N/A   Scattered Clouds
5:30 PM 64.4 °F 53.6 °F 68% 29.80 in 6.2 mi South 8.1 mph - N/A   Scattered Clouds
6:00 PM 64.4 °F 57.2 °F 77% 29.83 in 6.2 mi SSW 12.7 mph - N/A   Scattered Clouds
6:30 PM 62.6 °F 55.4 °F 77% 29.83 in 6.2 mi SSW 10.4 mph - N/A Rain Light Rain
7:00 PM 62.6 °F 53.6 °F 72% 29.83 in 6.2 mi SW 11.5 mph - N/A   Scattered Clouds
7:30 PM 60.8 °F 53.6 °F 77% 29.83 in 6.2 mi SW 10.4 mph - N/A   Scattered Clouds
8:00 PM 60 °F 56 °F 81% 29.83 in 9 mi SSW 9.2 mph - - Rain Light Rain
8:00 PM 60.8 °F 55.4 °F 82% 29.83 in 6.2 mi SSW 8.1 mph - N/A Rain Light Rain
8:30 PM 59.0 °F 55.4 °F 88% 29.83 in 6.2 mi SSW 5.8 mph - N/A   Scattered Clouds
9:00 PM 59.0 °F 55.4 °F 88% 29.83 in 6.2 mi South 4.6 mph - N/A   Scattered Clouds
9:30 PM 59.0 °F 55.4 °F 88% 29.83 in 6.2 mi Variable 2.3 mph - N/A   Scattered Clouds
10:00 PM 57.2 °F 55.4 °F 94% 29.83 in 6.2 mi Calm Calm - N/A   Scattered Clouds
10:30 PM 57.2 °F 55.4 °F 94% 29.83 in 6.2 mi Variable 2.3 mph - N/A   Scattered Clouds
11:00 PM 57.2 °F 55.4 °F 94% 29.86 in 6.2 mi Calm Calm - N/A   Scattered Clouds